Weather Roundup
Issued by NWS Springfield, MO

Home | Current Version | Previous Version | Text Only | Print | Product List | Glossary On
Versions: 1 2 3 4 5 6 7 8 9 10 11 12 13 14 15 16 17 18 19 20 21 22 23 24 25 26 27 28 29 30 31 32 33 34 35 36 37 38 39 40 41 42 43 44 45 46 47 48 49 50
000
NZUS99 KSGF 230207
HRRSGF

HOURLY WEATHER
NATIONAL WEATHER SERVICE SPRINGFIELD MO
800 PM CST SUN JAN 22 2017

......SGF CWA......

CITY           SKY/WX    TMP DP  RH WIND       PRES   REMARKS
SPRINGFIELD    CLOUDY    37  35  92 N22G30    29.77R WCI  26
JOPLIN         CLOUDY    35  34  96 N20       29.83R FOG     WCI  24
WEST PLAINS    CLOUDY    45  40  82 N16G24    29.66R
ROLLA          CLOUDY    41  39  93 NW16      29.70R
BRANSON        CLOUDY    43  43 100 NW14G22   29.72R

......SURROUNDING SGF CWA......

CITY           SKY/WX    TMP DP  RH WIND       PRES   REMARKS
CHANUTE        CLOUDY    40  33  76 NW8       29.86S WCI  34
PARSONS        CLOUDY    40  33  76 N7        29.87R
COFFEYVILLE    CLOUDY    39  33  79 N10       29.88R WCI  32
EMPORIA        CLEAR     33  30  88 W8        29.89R WCI  26
GROVE OK       MOCLDY    37  36  93 N15       29.84R WCI  28
ROGERS AR      CLOUDY    42  37  82 NW15G21   29.77R
SILOAM SPRINGS PTCLDY    43  36  75 N17       29.78R
HARRISON AR    CLOUDY    44  42  93 NW10G21   29.71R
NEAR YELLVILLE CLOUDY    46  39  76 NW12      29.65R

......KANSAS AND MISSOURI......

CITY           SKY/WX    TMP DP  RH WIND       PRES   REMARKS
KANSAS CTY INT CLOUDY    38  32  79 NW9       29.84R WCI  31
DOWNTOWN KC    CLOUDY    40  34  79 NW9       29.84R WCI  34
COLUMBIA       CLOUDY    40  36  86 N13       29.75R WCI  32
SEDALIA        CLOUDY    40  37  89 NW15      29.78R WCI  32
ST JOSEPH      CLOUDY    38  35  89 NW9       29.86R WCI  31
ST LOUIS       CLOUDY    46  37  71 N15G24    29.68R
SPIRIT OF STL  CLOUDY    44  38  79 N12       29.70R
KIRKSVILLE     CLOUDY    38  36  92 NW12      29.75S WCI  30
WICHITA        CLEAR     42  30  62 N8        29.90R
TOPEKA         CLOUDY    40  34  79 NW10      29.88R WCI  33
OLATHE         CLOUDY    37  34  89 N12       29.83R WCI  29

......TENNESSEE......

CITY           SKY/WX    TMP DP  RH WIND       PRES   REMARKS
MEMPHIS        CLOUDY    58  55  90 N15G25    29.40R
NASHVILLE      CLOUDY    59  53  80 N14       29.27S

......ARKANSAS.......

CITY           SKY/WX    TMP DP  RH WIND       PRES   REMARKS
FAYETTEVILLE   PTCLDY    42  38  85 NW18G28   29.77R
FT SMITH       CLOUDY    51  40  65 NW9G20    29.77R
LITTLE ROCK    CLOUDY    52  47  83 NW17G26   29.60R

......OKLAHOMA.......

CITY           SKY/WX    TMP DP  RH WIND       PRES   REMARKS
TULSA          CLEAR     49  34  56 NW15      29.84R
PONCA CITY     CLEAR     45  31  58 N12       29.89R
MCALESTER      PTCLDY    53  33  46 NW15      29.83R
OKLAHOMA CITY  CLEAR     45  32  60 NW10      29.90R

......IOWA............

CITY           SKY/WX    TMP DP  RH WIND       PRES   REMARKS
DES MOINES     CLOUDY    38  36  92 NW9       29.81R WCI  31
QUAD CITIES    CLEAR     37  33  85 NW7       29.69S WCI  32

......ILLINOIS........

CITY           SKY/WX    TMP DP  RH WIND       PRES   REMARKS
QUINCY         CLOUDY    37  34  89 N13       29.72R WCI  29
CHICAGO        CLOUDY    40  37  89 N7        29.65R



USA.gov is the U.S. government's official web portal to all federal, state and local government web resources and services.